Theta_e
334 337 340 349 348 348 348 349 349 348 347 348 347 345 345 344 345 345 345 345 345 347 347 348 349 348 347 348 346 346 346 346 346 345 344 344 344 343 344 345 345 346 346 346 346 346 346 346 345 344 344 343 342 340 340 340 342 342 341 341 340 340 340 340 336 336 335 338 340 340 340 340 339 337 335 335 336 339 337 336 335 332 331 332 336
334 337 338 345 349 348 348 349 348 348 348 346 345 345 344 344 344 344 344 344 344 343 347 346 346 346 346 345 345 344 344 344 345 344 343 343 343 344 343 344 344 344 345 344 344 345 345 346 345 344 344 343 341 340 340 340 341 339 339 339 339 339 339 339 336 334 335 335 336 338 338 340 338 337 340 339 337 337 337 336 335 331 329 335 334
336 337 339 346 349 348 348 348 348 348 347 346 345 343 343 344 344 343 343 343 343 343 343 344 345 345 345 344 343 343 343 343 343 343 343 343 344 344 343 343 343 343 344 344 345 344 344 344 343 343 343 340 339 340 340 340 339 338 339 340 341 341 341 339 334 334 334 334 333 334 334 338 336 336 338 337 336 336 335 335 334 331 329 337 334
335 335 341 346 347 348 348 347 347 347 347 345 344 343 343 343 342 341 342 342 342 342 342 341 343 344 344 343 342 343 342 341 345 344 342 343 343 342 342 341 341 341 341 341 341 343 343 343 343 343 341 339 339 338 338 338 338 338 339 339 340 340 341 336 335 334 334 333 333 331 329 324 330 336 336 336 335 334 334 332 331 331 337 336 335
335 337 341 343 344 347 347 347 347 346 346 346 345 342 341 341 341 341 341 340 341 341 341 341 341 341 342 342 342 340 342 342 347 347 347 346 346 345 343 342 342 343 343 344 343 342 341 341 342 342 340 338 338 338 337 337 338 338 339 339 340 339 339 338 336 334 334 334 332 330 323 323 324 332 336 335 333 331 334 333 332 334 334 334 333
335 338 342 342 343 345 347 347 346 345 345 345 343 343 342 342 342 342 342 342 341 341 340 342 341 341 341 340 342 341 342 342 346 346 346 346 345 345 343 340 339 339 340 341 342 343 342 342 341 341 340 337 337 337 337 337 338 338 339 340 340 340 338 336 335 334 333 332 330 324 323 324 326 329 333 334 333 332 332 333 332 333 333 332 333
335 337 342 342 342 344 346 346 346 345 344 343 342 341 342 343 343 342 342 341 341 341 341 341 341 341 341 341 341 342 342 343 346 347 346 345 344 343 342 341 341 341 341 341 342 342 341 341 340 339 339 338 337 336 337 337 337 338 339 339 340 339 335 335 334 333 331 327 322 322 322 324 325 327 333 334 333 332 331 333 333 332 331 331 331
334 338 342 342 342 344 345 347 346 345 344 342 341 340 341 342 342 342 341 341 342 341 342 341 339 340 342 341 342 342 342 343 344 345 346 345 345 344 344 344 343 342 343 343 341 341 340 340 340 340 340 337 336 337 336 337 338 338 339 338 338 338 336 334 333 332 329 322 321 322 323 324 325 326 331 333 333 332 331 332 332 331 330 331 331
335 341 342 342 342 344 345 346 346 345 343 341 341 341 342 341 339 341 341 340 340 340 340 340 339 339 340 340 340 341 341 342 344 344 344 344 343 343 342 342 342 341 340 340 340 339 338 338 340 340 338 337 336 336 336 337 338 338 338 338 337 338 336 335 332 329 325 324 324 323 323 324 324 325 331 333 333 332 331 332 332 332 332 334 329
339 340 341 341 341 342 344 345 347 345 343 342 343 343 342 338 340 341 339 339 339 336 336 337 337 339 340 341 342 341 340 341 345 345 344 344 345 344 343 341 341 340 341 341 341 340 340 339 338 338 337 337 336 336 336 337 337 338 338 337 337 337 336 334 332 329 323 323 325 327 333 335 324 325 331 334 334 333 332 333 334 334 332 330 330
339 340 340 340 341 342 345 347 346 345 343 343 342 342 341 339 339 340 339 339 339 339 339 341 342 342 341 341 341 341 340 340 342 342 342 342 342 343 342 341 340 339 339 338 338 339 339 339 339 338 337 337 336 335 335 336 336 337 336 336 336 336 336 332 328 323 325 326 326 326 330 336 328 325 333 335 335 334 335 334 333 330 330 329 330
339 340 340 340 344 341 345 345 345 345 344 343 342 341 340 339 339 339 341 340 339 339 341 341 341 342 342 341 341 341 341 341 342 342 342 343 342 343 341 340 339 339 339 339 338 338 339 339 338 338 337 336 335 335 335 335 336 335 335 335 336 336 335 331 323 322 323 325 325 325 326 329 331 333 333 334 334 334 333 331 331 330 329 329 329
339 339 340 341 341 341 343 345 344 344 345 343 342 341 340 339 337 341 341 340 339 340 341 341 341 340 340 340 340 339 340 340 342 342 342 342 341 342 340 339 339 339 338 338 337 337 338 338 338 338 337 336 335 335 334 335 334 334 334 334 334 334 333 329 322 321 321 322 323 323 325 329 331 337 334 334 334 334 334 332 332 331 330 331 331
339 340 340 340 340 344 340 341 343 344 344 343 342 341 339 339 339 340 340 339 338 339 340 340 339 339 339 338 338 338 339 340 342 343 342 341 340 340 340 340 339 339 338 338 337 337 337 338 338 338 336 335 334 334 334 334 334 334 334 334 334 333 330 327 325 320 322 322 323 322 323 328 331 336 337 337 334 334 333 333 333 333 333 332 333
339 339 339 340 342 342 341 339 341 341 343 344 343 341 340 341 341 341 340 338 337 341 339 338 338 338 338 337 337 338 339 340 341 341 340 340 339 339 339 339 339 338 338 337 337 337 337 338 338 337 336 335 334 334 333 333 333 334 334 334 334 331 328 324 322 320 322 323 321 321 321 325 336 336 336 337 335 334 333 332 332 333 332 333 333
340 339 340 340 341 342 340 341 337 337 339 340 341 341 343 342 342 341 340 338 337 336 336 337 336 337 338 339 339 339 340 340 341 341 341 339 338 338 338 338 337 337 337 337 337 337 337 337 337 336 335 334 334 333 332 332 332 333 332 335 332 329 326 324 321 319 319 320 320 321 321 325 334 336 336 336 336 334 333 332 332 333 335 336 335
340 340 340 340 339 339 339 338 335 332 333 334 338 340 342 343 343 342 342 341 339 337 336 336 337 339 340 340 340 340 339 339 340 339 339 341 339 339 338 338 337 337 337 336 337 336 336 336 335 335 334 333 332 332 331 331 331 332 333 332 330 328 325 323 322 319 320 321 321 320 322 325 332 335 335 336 337 335 335 333 335 335 336 335 335
339 339 339 340 338 337 337 335 335 334 333 332 333 338 341 342 341 341 341 341 341 342 343 342 341 340 340 339 339 339 338 338 338 338 338 339 337 337 338 338 338 337 337 336 336 335 335 335 335 333 333 332 331 331 331 330 331 332 331 330 329 327 324 323 322 320 321 322 319 320 322 332 333 334 335 335 336 336 335 335 335 335 335 334 334
338 339 339 339 338 337 335 334 333 333 332 331 331 334 335 338 339 339 339 340 340 340 340 338 338 339 337 336 335 333 333 334 335 335 335 335 334 332 335 337 336 336 336 335 334 334 334 334 333 333 332 331 331 330 330 331 331 330 330 329 326 323 321 322 322 319 319 319 318 319 321 331 332 334 334 333 335 335 334 333 334 334 335 334 335
337 337 338 338 338 336 335 334 333 332 331 331 331 332 332 332 335 336 336 336 337 336 335 333 332 331 331 330 329 328 328 328 328 327 330 333 332 329 332 335 334 334 334 334 334 333 333 332 332 331 331 330 330 329 331 331 331 330 330 328 325 320 319 318 319 318 318 318 318 318 329 330 332 335 334 333 334 334 334 334 334 334 335 335 335
331 336 336 337 337 336 335 334 333 332 331 331 331 332 331 330 331 331 332 333 334 333 331 327 325 325 325 324 326 326 326 327 326 325 323 326 323 326 331 335 335 335 334 333 333 332 332 332 331 331 331 331 330 329 328 330 332 331 328 325 320 318 318 318 320 319 317 318 318 320 330 330 332 334 334 334 336 335 335 334 335 334 335 335 334
323 329 335 336 337 336 335 335 334 333 332 332 332 332 331 332 333 333 329 329 328 327 326 326 329 324 322 325 326 326 325 325 326 328 326 327 326 325 329 334 335 334 334 334 333 332 332 331 331 331 331 330 327 316 317 322 324 327 325 320 319 319 317 318 321 320 318 317 318 324 331 331 332 333 334 334 335 334 333 334 334 335 335 334 335
322 323 328 334 336 335 335 335 334 334 332 331 332 330 331 332 332 331 329 326 328 327 327 327 324 324 322 324 324 325 324 325 326 326 325 321 325 324 328 330 331 331 333 333 332 332 332 330 331 331 330 329 321 318 318 319 317 319 318 319 319 319 322 323 321 320 318 317 318 328 331 331 331 333 333 333 334 333 333 333 334 334 335 335 335
322 322 324 327 329 332 333 334 335 333 333 331 330 330 330 330 330 330 329 327 326 327 326 326 325 324 325 324 322 322 325 326 328 327 324 323 322 322 324 326 327 327 328 327 329 330 331 331 330 330 325 320 316 316 317 319 319 319 318 318 318 318 320 322 323 321 321 321 319 327 329 331 332 332 333 333 333 333 333 333 333 333 334 334 334
323 323 323 326 325 326 325 329 334 331 332 331 329 329 330 329 329 329 329 328 327 326 326 326 325 325 325 324 323 325 325 326 325 324 323 323 322 322 322 323 323 323 323 324 321 321 321 318 317 317 318 317 316 317 316 317 317 318 319 319 319 318 322 322 323 322 320 321 321 324 327 330 332 332 332 332 333 333 332 332 333 333 334 333 333
324 323 324 324 324 325 324 324 328 328 331 331 329 329 329 328 327 328 328 328 328 327 325 325 325 326 323 324 324 325 323 323 323 322 323 323 323 322 322 323 322 322 321 321 321 320 317 318 317 318 316 317 317 317 317 317 318 319 322 323 323 321 317 319 320 322 322 321 320 323 327 330 330 330 331 332 333 333 332 332 333 334 334 333 331
323 324 324 324 324 324 323 325 324 325 327 330 329 327 328 327 326 327 326 326 327 326 325 324 325 326 323 323 323 323 322 322 320 320 322 322 322 322 322 322 322 322 321 320 320 321 318 317 319 320 317 316 316 316 317 318 319 320 319 321 322 321 320 319 319 324 321 318 318 321 327 329 330 330 331 332 332 332 332 331 332 334 332 329 328
321 322 324 324 324 324 324 324 324 324 324 325 325 325 326 325 325 325 325 325 326 324 324 324 325 326 323 323 322 322 322 320 321 319 321 322 322 322 321 321 321 321 319 318 319 319 318 316 317 316 317 314 316 316 316 320 322 320 321 321 321 322 321 320 321 322 319 317 316 319 323 327 328 328 329 330 330 331 332 331 332 333 330 327 327
321 321 323 323 324 325 325 325 324 324 324 324 323 322 324 324 323 324 324 324 326 325 324 324 324 325 324 323 321 321 320 322 322 321 319 322 320 321 319 320 321 321 319 316 318 317 316 316 314 315 313 314 315 316 318 319 318 317 318 319 322 322 320 317 320 322 319 316 316 316 321 324 326 325 327 329 329 329 329 330 331 330 327 327 328
322 322 322 323 324 325 325 325 325 325 325 324 323 323 323 322 322 323 324 323 326 327 324 322 324 324 324 323 322 322 320 321 321 320 321 320 318 318 318 318 318 317 316 318 316 315 316 314 315 314 316 316 317 321 320 319 316 316 317 318 320 319 316 317 321 320 318 316 314 315 318 321 323 322 324 326 327 327 327 327 328 328 328 328 327
321 321 322 322 324 325 325 326 326 324 324 323 322 323 322 322 323 323 324 324 323 324 323 323 323 324 325 323 322 322 322 322 322 321 321 320 319 320 320 316 317 317 318 319 319 318 317 317 316 317 318 317 320 320 318 318 316 317 316 317 321 318 318 318 318 317 317 316 314 313 316 318 320 323 324 324 325 326 325 326 326 327 328 326 326
321 321 321 323 324 325 325 325 326 325 324 324 322 323 323 323 323 323 323 324 323 323 321 322 322 324 324 324 323 322 322 320 322 322 322 321 320 319 320 319 320 319 320 320 319 319 319 318 318 317 318 319 317 316 316 316 316 318 318 320 321 319 317 316 318 317 316 316 315 314 315 314 316 319 321 323 325 325 325 326 326 326 326 324 325
323 322 321 322 323 325 325 325 325 324 325 324 323 323 323 324 323 324 323 324 324 324 323 322 323 323 323 324 324 323 323 322 321 322 321 322 322 321 320 320 321 322 322 321 321 319 318 317 317 317 318 318 317 319 318 316 315 316 316 319 319 318 317 318 317 315 314 315 315 314 313 311 310 313 316 319 324 323 324 325 325 324 322 323 324
324 322 322 322 324 325 326 326 325 324 324 325 324 323 324 324 324 324 323 324 324 323 323 323 323 323 323 324 324 324 323 322 322 322 323 323 323 322 321 321 322 322 322 320 320 320 319 317 317 317 320 317 317 319 317 317 315 313 314 318 317 316 314 317 317 318 315 316 315 315 313 310 307 307 309 314 318 322 323 323 322 321 321 321 322
324 323 322 323 323 324 326 326 324 324 323 324 324 324 324 324 324 325 324 325 324 324 323 323 323 323 324 324 324 324 323 323 322 324 323 324 323 322 322 322 322 322 321 321 322 320 320 320 316 316 319 318 318 318 317 318 315 314 316 317 318 317 316 319 319 317 315 315 315 314 313 311 308 306 305 305 310 315 320 319 319 319 319 319 320
326 325 324 323 323 324 324 324 323 324 324 324 325 325 325 325 325 324 325 325 324 324 324 324 324 323 324 325 325 324 324 323 323 324 325 324 323 322 323 322 322 321 322 322 322 321 320 320 320 320 316 316 315 315 313 313 315 317 315 314 314 314 315 317 318 317 316 315 314 313 312 310 308 305 304 304 306 310 314 314 315 316 316 317 317
327 326 325 323 323 323 323 323 322 324 324 324 324 325 325 324 324 325 325 325 324 324 324 324 324 323 324 324 326 325 324 325 324 324 325 325 324 323 322 323 322 322 321 322 321 321 320 320 318 317 319 315 313 313 312 312 313 316 317 315 314 313 314 318 318 317 315 313 312 310 309 308 307 307 302 303 305 306 309 311 310 310 311 312 313
327 327 326 326 324 324 323 323 323 324 324 324 323 324 324 325 324 324 323 325 325 324 324 324 324 324 324 324 326 326 325 326 325 325 326 326 325 324 323 323 323 322 322 321 321 321 320 320 319 316 317 315 313 312 312 314 313 314 313 313 313 313 313 316 315 312 313 311 311 308 306 305 305 305 303 302 303 304 305 309 309 308 307 308 309
327 327 327 327 326 325 323 322 322 323 324 324 322 322 323 324 324 323 323 324 324 325 324 324 324 324 323 324 325 325 324 326 326 325 325 325 324 324 323 322 323 322 321 321 320 319 319 319 318 317 315 316 315 313 313 313 313 313 312 313 311 314 317 315 313 313 312 311 309 307 305 304 303 303 303 303 303 303 303 302 300 299 300 305 305
327 327 327 327 326 326 324 324 323 323 324 323 322 322 322 322 323 322 322 322 324 323 324 324 324 324 324 324 325 326 325 324 325 325 325 324 324 324 324 323 322 322 321 320 319 319 319 317 316 317 316 313 313 316 314 313 309 311 310 311 311 313 314 312 314 313 312 310 307 304 303 301 302 302 303 303 303 303 302 301 300 299 298 302 303
326 327 327 326 327 326 324 323 325 324 324 323 322 322 322 322 321 323 322 323 323 324 323 324 324 324 324 324 324 326 325 324 324 325 324 323 324 324 324 323 322 322 321 321 321 320 320 320 318 316 316 315 316 314 314 313 311 310 307 309 311 313 313 311 313 312 310 306 301 301 300 301 301 301 301 302 301 301 301 301 300 299 296 293 298
324 326 326 326 327 327 325 325 326 325 325 325 323 323 323 323 323 324 324 324 323 323 323 324 325 325 324 325 324 326 326 325 324 325 323 324 324 324 323 324 322 322 322 322 321 318 320 319 318 315 315 317 315 315 315 316 309 306 307 306 306 311 312 314 310 309 307 302 301 301 300 301 301 300 300 301 300 300 300 300 300 299 294 292 292
325 325 326 326 326 326 326 326 327 327 326 326 325 324 324 324 324 322 324 323 325 325 326 325 325 326 326 325 325 326 327 326 325 324 324 324 324 324 324 324 324 323 321 321 321 320 320 319 318 318 315 314 316 314 316 317 310 307 306 306 304 306 307 310 310 309 304 301 300 300 301 300 300 300 300 300 299 299 299 299 298 297 293 292 291
323 324 325 325 326 326 326 327 327 328 328 327 325 327 326 325 324 322 323 324 323 324 325 324 325 325 326 327 327 327 327 327 326 325 325 325 324 324 324 324 324 324 323 322 321 321 320 319 319 319 318 314 314 315 316 316 314 311 306 307 303 303 299 305 307 307 304 300 300 300 300 301 300 298 298 299 299 299 298 299 298 297 294 293 291
323 324 324 325 327 326 327 327 327 327 328 326 326 327 325 324 324 322 322 323 323 322 324 324 325 325 325 326 327 327 328 328 328 327 325 325 325 325 324 324 325 324 324 323 322 322 322 321 320 319 318 318 315 313 314 315 315 316 309 302 301 300 301 302 306 305 301 299 298 300 300 300 299 298 297 297 297 298 298 298 298 297 295 293 291
322 324 325 325 326 327 327 327 326 327 327 327 326 326 325 326 324 323 322 323 323 323 323 324 324 324 325 326 326 327 328 328 329 328 327 325 326 326 325 325 325 324 324 324 324 323 322 321 321 321 319 318 318 313 313 313 315 315 315 312 303 300 297 300 307 301 304 301 298 299 300 298 297 297 297 297 297 297 298 299 298 297 295 293 291
322 324 324 325 325 326 326 327 327 326 326 327 326 324 326 326 326 325 324 323 322 323 325 326 326 326 326 325 326 326 328 328 329 329 329 326 327 327 326 325 325 325 324 324 323 323 323 322 322 321 321 319 316 315 314 315 313 315 315 315 312 309 304 304 303 298 298 300 298 297 297 295 297 297 297 296 296 296 298 298 298 297 294 292 291
322 323 323 324 324 324 325 326 327 325 326 326 325 325 325 325 325 325 324 324 323 323 323 325 325 325 325 325 325 326 327 329 330 329 330 329 327 327 327 326 326 326 324 324 324 324 324 323 322 323 322 320 319 318 315 315 315 314 314 314 312 310 309 306 301 304 299 297 295 297 296 294 295 296 296 296 295 296 296 297 298 296 293 292 290
321 321 322 323 323 324 323 324 325 325 325 325 324 325 324 325 325 325 324 324 324 324 321 322 323 323 324 325 325 326 326 327 329 330 330 330 327 327 328 327 327 326 324 325 325 325 324 323 322 321 321 320 320 319 317 315 316 315 311 312 313 311 306 305 303 301 296 295 293 295 294 294 294 294 295 295 295 295 296 297 298 295 293 291 290
322 321 321 321 322 322 322 322 323 325 325 324 324 325 324 323 324 324 324 324 323 322 320 321 322 323 324 324 325 325 326 326 327 328 329 330 329 327 328 328 327 327 323 325 326 325 325 324 323 323 322 321 320 319 318 317 316 316 314 313 312 311 309 306 302 302 300 300 295 295 293 292 290 291 293 294 294 294 295 297 297 295 293 290 289
319 319 319 320 320 321 321 321 323 324 324 324 324 324 324 324 324 324 323 323 322 322 320 320 321 322 323 324 324 325 325 326 327 327 328 329 329 328 328 329 329 327 325 326 326 326 326 325 325 323 322 322 320 319 316 316 316 316 314 314 314 312 311 309 307 303 303 297 294 295 293 292 291 290 292 293 294 294 295 296 296 294 292 290 288
Wind_Speed
3 5 2 7 10 11 12 13 13 13 13 13 13 14 14 14 14 13 14 14 13 16 15 15 17 18 19 19 18 18 17 17 17 17 17 16 16 16 17 18 18 18 18 18 18 18 19 19 19 18 19 18 18 17 16 16 17 18 18 16 15 15 13 16 19 19 17 21 20 21 19 19 20 19 17 18 20 20 16 19 15 11 9 14 19
6 4 2 4 11 12 12 12 13 14 14 14 13 13 14 14 14 14 13 13 12 11 15 13 13 16 17 17 18 16 14 15 16 16 16 16 17 17 18 18 17 17 17 17 18 18 18 19 19 18 18 17 17 16 16 16 17 16 15 14 13 12 11 12 16 18 18 18 19 18 19 19 20 19 20 20 20 20 17 18 18 9 6 17 18
6 4 3 7 11 12 12 13 13 14 14 14 14 13 12 13 13 13 13 13 12 12 12 12 14 15 16 17 16 15 15 15 16 16 16 17 18 18 18 18 18 17 18 18 18 18 19 19 18 17 17 17 16 16 16 16 16 15 15 16 15 14 14 16 17 17 18 19 18 15 13 18 20 19 20 20 20 18 16 19 18 13 11 19 17
9 4 4 8 10 11 12 13 13 14 14 14 13 12 12 12 13 12 13 13 12 12 12 12 13 13 14 16 15 16 16 14 16 15 16 17 17 17 17 17 16 16 16 17 17 18 18 18 18 17 17 17 17 17 16 16 15 14 14 14 14 15 15 17 18 17 17 16 14 10 6 5 9 19 20 20 19 17 13 18 17 16 21 19 19
9 5 5 5 6 10 13 12 14 13 14 14 13 13 13 12 12 12 12 12 14 13 13 12 12 12 13 14 15 16 14 15 16 17 18 18 17 17 18 17 17 17 17 18 18 18 18 18 18 18 18 17 16 16 15 15 14 14 14 15 15 16 18 17 16 15 14 13 11 7 5 6 5 15 18 20 17 13 15 17 15 18 18 19 18
8 6 6 5 5 7 11 11 13 13 13 13 13 13 14 13 13 13 13 14 14 12 12 15 14 13 14 14 16 15 15 15 16 16 17 17 17 18 17 16 16 15 16 17 17 18 18 17 17 17 17 16 16 15 15 15 14 15 16 16 16 15 14 17 17 14 12 10 9 5 5 5 6 9 18 17 16 13 17 17 16 16 18 17 16
10 6 6 5 5 7 10 12 13 13 13 13 12 12 14 13 12 13 13 13 14 14 14 14 13 14 14 14 15 15 15 15 16 16 17 17 18 17 16 16 17 16 16 16 17 18 17 17 17 17 17 16 15 15 14 14 15 15 15 15 16 15 15 15 15 14 11 6 6 5 6 6 5 5 17 17 17 16 16 16 15 15 14 14 14
8 7 7 6 5 8 11 11 12 14 13 12 12 11 13 13 11 12 13 13 13 13 14 14 12 13 16 15 15 15 15 15 15 15 16 17 17 17 16 16 17 17 17 18 17 16 16 16 17 16 16 16 15 14 14 14 14 14 15 17 18 16 14 13 14 14 11 6 5 5 5 4 5 4 14 16 17 16 16 15 15 13 14 13 10
8 9 8 7 6 10 10 10 13 14 13 13 12 12 13 12 11 13 12 11 12 12 13 14 14 12 13 14 14 14 14 15 15 15 15 16 16 17 16 16 17 16 16 17 16 16 16 17 16 16 16 15 14 14 14 14 15 15 17 17 17 15 14 12 12 11 7 5 5 5 5 5 4 3 12 16 16 16 15 10 11 12 14 11 13
8 8 8 6 7 10 10 10 13 13 14 14 13 13 12 10 12 14 12 12 11 11 11 10 12 13 13 13 14 14 14 14 16 15 16 16 17 17 16 16 16 16 16 17 16 16 16 16 16 16 16 15 14 14 14 14 15 16 17 17 15 14 12 12 11 9 6 6 7 7 7 9 3 3 12 15 15 13 11 7 7 9 10 13 14
8 7 7 7 7 10 10 10 11 11 13 14 14 13 12 11 11 12 12 12 10 12 12 12 13 13 12 12 12 13 13 13 13 14 14 15 16 16 16 16 15 15 15 15 15 16 16 16 15 16 15 15 14 14 14 14 15 15 16 15 14 13 11 11 9 6 6 7 7 6 8 11 6 3 13 14 16 15 10 10 9 13 12 12 12
8 7 7 6 10 9 10 9 10 11 12 13 14 13 13 11 11 12 12 12 10 11 13 13 12 12 12 12 11 11 13 13 13 14 14 15 15 15 16 15 15 15 15 15 15 15 15 15 15 15 14 14 14 13 13 13 14 14 14 14 13 11 9 9 6 5 5 6 6 6 7 7 6 5 12 13 14 14 13 13 12 12 12 11 11
9 8 7 6 5 8 9 10 10 9 10 12 13 13 12 11 11 13 12 11 11 11 12 12 12 12 12 11 11 11 12 13 15 14 14 14 14 15 15 15 15 14 14 14 14 14 14 14 14 14 13 13 13 12 12 12 12 12 11 11 11 11 8 7 5 5 4 4 4 5 5 5 5 14 11 10 11 12 12 12 12 11 12 11 11
9 8 7 7 5 7 9 10 9 9 9 9 10 10 9 11 11 12 11 11 11 12 12 12 12 12 12 12 11 10 10 12 14 14 14 14 14 15 15 14 14 14 14 13 13 13 14 13 13 13 12 12 12 11 11 11 10 10 9 10 11 10 9 4 5 5 5 4 4 5 5 4 5 11 13 11 9 11 10 10 10 11 10 9 10
9 8 7 6 6 5 10 11 10 9 8 7 8 8 10 13 12 11 10 9 11 14 13 11 11 11 11 11 12 11 11 11 12 13 12 12 13 13 13 14 13 13 13 13 12 12 12 12 12 12 12 12 11 11 10 10 10 11 11 11 10 9 10 4 3 5 4 4 3 4 4 3 9 10 12 11 9 10 10 8 8 8 9 10 10
10 8 7 6 6 6 6 10 11 10 8 8 7 7 8 12 11 11 11 10 10 9 10 10 10 10 11 12 12 11 11 12 11 10 9 11 12 12 12 12 13 12 12 12 12 11 11 11 11 11 11 11 10 10 9 9 9 9 9 8 8 9 9 7 5 4 4 4 3 4 4 4 10 11 10 10 10 9 9 7 9 10 11 12 12
9 8 7 7 6 6 6 7 8 11 10 10 9 10 11 11 10 10 9 9 9 10 10 10 11 12 12 12 12 11 11 11 11 11 11 11 11 10 11 12 13 12 11 11 11 10 10 10 10 10 9 9 9 8 7 5 7 7 7 7 8 9 8 7 3 3 5 4 3 4 4 4 8 11 11 10 10 9 10 9 11 10 11 11 11
9 9 8 7 6 5 6 7 8 7 6 8 9 9 10 10 9 8 8 8 8 10 11 13 13 13 12 10 10 10 11 11 10 11 10 11 12 11 10 12 12 11 10 10 9 9 10 10 9 9 8 8 7 6 4 3 3 4 5 7 8 8 8 5 3 2 4 4 4 2 3 6 10 9 9 10 9 10 10 11 11 11 10 10 10
8 8 8 7 7 6 7 6 5 7 6 5 5 6 10 8 9 9 8 9 10 10 11 11 12 10 11 10 9 10 10 11 10 11 11 10 9 9 9 9 10 9 9 9 8 9 9 8 8 7 7 6 5 3 2 1 1 1 3 4 6 6 7 4 2 3 3 4 3 3 3 6 8 8 8 8 9 9 9 9 10 11 10 10 12
7 8 8 7 7 7 6 5 5 7 5 5 6 5 7 10 9 9 10 10 10 10 11 11 11 11 11 11 10 8 8 8 11 8 10 9 9 7 8 7 8 8 8 7 8 8 8 7 6 5 5 4 3 1 2 2 1 3 1 4 5 7 4 2 1 2 3 3 2 3 4 6 7 8 8 8 9 9 9 9 9 10 11 12 13
4 7 8 7 7 8 7 6 5 6 7 6 5 6 7 8 7 10 10 10 10 10 10 10 10 10 9 9 9 6 5 5 6 6 7 6 7 9 9 7 7 7 7 7 6 6 6 5 5 3 3 1 2 3 4 5 5 3 3 4 5 5 4 3 3 4 3 2 2 2 4 5 6 7 8 8 9 9 10 10 10 10 11 12 11
3 6 7 8 7 7 8 7 6 6 6 6 5 5 6 8 7 5 5 7 8 8 7 5 6 4 8 7 5 5 5 4 5 6 5 5 6 8 8 8 7 6 6 6 5 4 4 4 2 2 2 1 1 2 3 6 7 7 4 5 4 2 3 1 2 5 3 2 2 2 3 4 5 7 7 7 8 9 9 9 10 10 11 10 12
3 4 6 9 8 7 7 7 7 7 7 6 5 5 6 5 6 5 4 6 6 5 5 5 4 4 4 4 3 4 4 4 5 5 5 5 6 7 7 6 5 5 4 3 3 3 2 2 2 3 2 1 1 3 4 5 4 7 5 3 3 2 2 1 2 3 3 2 2 3 3 5 5 6 6 7 7 8 8 9 9 9 11 12 13
4 3 6 5 7 7 8 7 8 7 8 6 6 6 5 5 5 5 5 5 5 4 4 4 4 4 4 3 2 3 4 4 6 11 8 4 4 4 5 5 4 2 2 2 2 2 1 2 3 3 3 1 1 3 4 4 4 4 2 3 2 1 4 3 2 4 3 2 2 4 5 6 6 5 5 6 6 7 8 8 8 10 12 12 14
6 3 3 4 5 7 6 7 7 7 9 7 7 6 6 6 5 6 6 5 5 5 5 5 4 5 5 4 4 4 4 5 5 3 4 3 3 3 3 2 2 2 3 2 2 3 2 3 2 2 2 2 2 3 4 2 2 1 2 1 1 3 3 3 2 1 3 3 3 4 4 5 6 5 5 5 6 7 7 8 9 10 12 13 14
7 6 7 5 5 4 5 5 5 6 8 8 7 7 7 6 6 6 6 6 6 6 5 4 6 5 4 4 5 6 6 6 5 4 4 4 4 4 3 3 2 3 3 2 2 2 3 3 3 4 3 3 3 4 0 2 3 2 2 0 1 2 3 3 1 2 4 4 3 5 5 6 6 6 7 7 7 8 7 8 10 11 12 14 14
9 10 8 6 5 4 4 4 4 6 7 7 6 7 7 6 7 6 7 6 6 6 6 5 6 5 4 4 7 6 6 6 5 4 5 4 4 4 4 4 4 4 3 4 3 4 4 5 3 4 3 3 3 3 2 2 4 3 2 2 2 1 1 2 2 2 5 4 4 6 7 9 8 8 8 7 8 8 8 8 9 11 12 13 12
4 5 7 7 7 6 5 4 5 6 5 5 6 7 6 6 8 8 7 8 7 6 6 6 6 7 5 4 6 6 7 6 5 5 5 5 5 5 5 4 4 5 4 5 4 5 5 4 3 4 4 4 2 2 3 3 4 2 3 2 3 1 3 2 1 2 5 5 3 6 8 7 7 9 8 8 7 7 8 7 9 11 13 11 14
9 8 7 7 8 8 8 7 6 6 5 4 4 5 6 5 6 8 7 6 7 6 6 5 6 6 5 5 4 5 5 5 5 5 5 6 6 5 5 6 6 6 5 4 4 5 4 4 4 5 3 2 3 3 3 3 2 1 0 2 2 2 1 2 0 4 4 4 4 5 9 8 8 9 8 7 7 7 7 8 9 12 12 13 15
12 10 9 8 7 9 10 10 9 8 7 5 5 6 6 5 5 6 7 5 5 5 5 6 6 6 5 4 5 5 5 6 6 5 5 4 3 4 5 5 5 4 5 4 4 3 4 3 4 3 2 2 2 5 4 4 2 2 2 1 3 2 1 1 1 5 5 5 4 4 9 8 7 8 8 8 8 7 7 9 11 13 13 14 14
10 10 10 9 8 9 9 10 9 8 6 6 6 7 6 6 5 6 6 6 4 4 4 6 6 6 6 5 5 5 6 5 6 6 5 5 4 5 5 3 4 5 5 5 4 5 4 5 4 4 3 2 2 3 3 1 3 3 3 2 4 2 1 2 3 4 5 5 4 4 5 8 7 8 9 9 9 8 9 10 13 14 14 13 13
11 12 10 9 9 10 10 9 9 9 9 7 6 6 7 7 6 6 6 6 4 5 4 5 7 7 6 6 5 6 5 5 6 6 6 6 6 6 6 5 6 6 6 6 6 6 5 4 4 3 3 3 2 2 2 2 3 4 3 3 3 3 2 4 4 3 5 6 5 5 5 5 7 8 8 9 9 9 11 12 13 14 14 13 13
8 11 10 10 12 11 10 10 9 9 11 9 8 7 7 7 6 6 6 6 6 6 5 5 6 7 7 7 7 6 6 6 7 7 7 7 7 6 6 6 7 6 7 6 6 5 4 3 2 3 2 1 2 3 3 2 4 4 3 2 3 3 1 5 4 3 4 5 6 5 5 4 4 8 9 7 7 11 12 13 14 14 13 13 13
9 7 10 13 11 8 8 8 10 11 11 10 8 7 7 7 7 6 7 7 6 7 6 6 6 6 7 7 8 8 7 6 6 6 8 7 7 7 7 7 7 7 6 5 6 6 5 3 3 1 4 3 4 5 3 4 5 5 3 1 1 3 3 4 4 5 4 6 6 6 5 5 4 5 5 7 5 8 12 13 14 14 13 13 13
7 8 12 13 12 11 9 9 11 12 11 10 10 9 7 8 8 7 7 8 7 7 7 6 6 6 6 7 8 8 8 7 6 7 8 8 8 8 7 8 8 6 6 6 7 7 5 5 3 3 4 5 5 5 4 6 5 3 4 1 3 3 4 4 3 3 4 5 6 6 6 5 4 5 5 5 5 7 9 13 13 13 13 13 13
10 10 11 10 12 11 11 10 11 12 12 11 10 10 9 9 9 8 7 8 8 8 8 7 7 7 6 6 7 8 8 8 7 6 7 8 8 8 8 7 7 6 7 7 6 6 6 4 4 5 5 5 5 5 4 4 3 4 2 1 4 1 2 4 4 3 4 5 6 6 6 6 5 6 5 5 3 5 11 13 13 13 13 14 14
12 9 11 10 11 12 12 12 12 13 12 11 10 9 8 8 8 9 9 8 8 8 8 7 6 7 7 7 7 8 8 8 8 7 7 7 7 7 7 8 7 7 7 7 7 7 5 5 5 5 6 6 4 4 2 0 2 2 1 1 2 3 2 6 5 4 4 5 5 4 6 6 6 5 5 5 4 5 9 11 12 12 12 13 14
12 11 11 13 13 12 11 11 10 11 11 11 10 9 8 7 7 8 7 8 8 8 8 8 8 8 8 8 9 9 9 9 9 7 7 7 7 6 6 6 6 6 7 6 7 5 5 6 6 4 6 4 5 3 1 1 1 1 1 0 1 1 3 4 4 4 6 5 5 5 5 7 7 5 5 6 5 6 5 8 11 11 11 11 13
10 12 11 11 10 10 10 10 11 11 10 9 7 7 7 6 6 6 7 7 6 7 7 8 8 8 8 9 10 9 10 10 9 8 7 6 7 7 6 6 6 6 6 6 6 5 6 5 6 6 4 5 5 5 5 4 2 0 2 3 2 2 5 5 4 6 4 5 7 5 4 6 6 6 6 6 6 5 5 4 5 4 6 11 12
11 11 11 10 10 10 9 9 10 10 8 8 7 6 7 8 8 6 7 8 7 7 7 8 8 8 9 9 10 9 9 9 9 9 8 7 7 7 7 6 6 6 7 7 7 7 7 6 6 6 5 3 3 5 5 4 1 0 1 3 3 1 4 4 5 5 5 4 6 6 6 5 6 5 6 6 6 4 4 4 5 5 4 8 11
11 12 11 11 11 11 11 12 9 10 9 9 9 9 9 7 6 9 10 8 9 8 8 8 8 9 10 9 9 9 10 10 10 10 9 8 8 7 8 7 6 7 8 9 8 8 7 7 6 6 6 5 5 4 4 4 2 1 1 2 2 0 3 3 6 5 4 6 6 6 5 6 4 5 5 6 5 5 4 5 5 5 5 5 6
11 12 13 13 12 11 13 12 9 10 11 11 10 10 9 10 10 10 9 9 9 10 10 10 10 9 11 11 9 10 11 11 10 10 10 10 9 8 8 9 8 8 8 8 8 8 7 6 5 5 5 8 6 6 5 5 0 3 1 1 2 1 0 0 3 4 5 6 6 6 5 7 6 5 5 6 5 5 5 5 5 4 4 5 5
13 14 14 12 11 12 12 11 11 11 11 11 11 11 10 9 9 6 8 6 6 8 8 8 8 9 10 10 9 8 10 10 10 10 10 10 10 10 9 9 9 8 8 8 8 8 8 8 8 8 5 4 5 4 7 7 5 3 2 2 1 2 1 0 0 2 5 5 5 6 6 6 7 5 6 6 5 5 5 5 5 4 4 5 5
10 11 12 14 12 11 11 12 13 13 11 12 12 10 9 7 6 4 4 5 5 5 5 5 7 8 9 8 8 8 9 10 10 10 9 10 11 11 9 9 9 9 9 9 9 9 9 8 8 9 7 5 4 5 6 7 6 7 1 5 4 4 2 6 4 2 2 4 7 6 5 6 6 4 5 6 5 5 4 5 6 5 4 5 4
12 13 13 13 11 15 15 15 13 14 12 12 12 9 7 6 6 4 3 4 4 4 5 8 9 10 9 9 9 7 8 9 10 11 11 11 10 10 10 10 10 10 9 10 10 11 10 10 10 9 9 8 7 4 5 6 7 7 6 3 1 1 5 4 5 2 3 3 3 6 5 6 6 7 6 6 5 5 5 5 5 4 5 5 4
13 14 13 14 13 14 14 12 10 11 12 12 12 10 10 10 9 9 10 9 10 10 11 13 11 12 13 9 7 8 7 8 9 11 11 10 11 11 11 10 11 10 10 10 10 8 10 11 10 9 9 8 8 5 5 5 7 7 7 6 5 3 4 4 8 5 1 1 4 4 6 5 6 7 6 6 6 6 6 6 5 5 5 4 4
15 12 11 12 13 12 12 13 12 11 11 11 12 11 10 11 13 13 12 12 13 11 10 7 8 9 6 8 9 7 7 8 8 9 10 10 10 10 11 11 11 10 9 9 10 11 10 11 9 9 9 8 7 8 9 7 4 6 6 7 4 4 3 6 7 4 5 1 2 2 4 4 6 6 6 7 7 6 5 6 6 6 5 4 5
15 10 11 11 13 13 12 14 12 11 10 10 13 14 13 12 12 13 12 12 12 12 8 8 5 5 8 9 7 9 9 9 9 9 9 9 10 10 10 10 11 10 9 10 11 10 8 8 9 11 9 9 10 10 9 7 10 7 7 8 6 4 6 4 3 8 6 8 4 2 1 3 4 5 7 7 7 7 7 5 6 5 5 4 5
11 12 13 14 13 12 11 11 12 11 10 12 13 14 14 13 12 11 12 11 10 8 5 6 7 6 8 8 9 9 10 11 11 10 10 10 10 10 10 10 10 10 9 9 9 9 11 10 10 9 10 9 9 9 8 9 9 9 6 7 6 6 4 4 3 3 4 5 4 6 4 0 1 3 5 5 6 6 6 7 6 6 6 5 5
12 12 10 8 9 9 10 11 13 12 11 11 12 13 13 11 12 13 14 11 9 7 6 8 8 8 10 10 10 9 10 10 11 11 11 11 10 10 10 11 11 10 9 10 9 10 10 10 11 11 11 11 8 9 10 8 9 8 9 7 8 5 5 3 2 3 1 2 6 8 7 8 7 5 3 5 5 5 4 6 6 5 5 5 5
9 9 9 10 9 10 11 12 15 10 10 12 12 14 12 12 14 14 15 14 11 10 9 9 8 9 11 11 11 10 9 10 9 10 12 11 11 11 11 11 10 10 9 10 10 10 9 10 10 10 10 12 9 9 8 8 9 9 9 7 9 10 9 8 7 5 4 3 2 4 4 6 7 7 6 5 5 4 5 6 6 5 6 5 5
Wind_Direction
152 138 157 142 117 120 120 118 114 113 106 97 92 91 86 87 86 80 80 77 89 93 88 92 91 85 85 83 81 78 81 84 83 81 80 81 81 81 80 80 79 80 80 81 82 81 79 77 75 71 70 69 68 68 68 68 67 69 67 66 67 71 73 71 71 75 64 56 60 63 66 66 65 65 67 65 61 61 60 56 53 55 58 52 48
151 135 129 115 117 117 118 117 114 110 104 101 96 90 92 92 92 88 85 87 83 97 97 92 87 86 86 84 81 85 82 83 87 88 86 86 85 82 79 76 76 77 76 75 74 73 75 74 72 72 70 68 68 68 66 64 61 60 60 60 62 67 69 72 77 79 74 67 61 61 63 64 65 65 63 61 59 57 54 55 50 43 54 61 54
122 105 95 110 115 119 121 118 116 110 106 101 98 99 95 98 97 99 104 99 94 93 97 98 93 87 84 88 93 93 90 87 89 91 92 93 92 87 82 80 80 80 82 80 78 77 75 76 76 73 69 68 67 66 65 63 60 54 47 43 40 43 55 80 86 81 77 70 63 52 45 61 65 61 61 59 57 54 55 56 54 44 53 59 52
114 108 93 109 112 117 121 120 115 111 109 105 104 101 98 102 103 101 98 97 98 94 94 98 99 98 99 98 95 89 94 95 85 87 94 89 84 86 85 84 84 82 81 80 78 77 76 74 72 70 68 67 67 67 67 66 59 52 46 43 41 45 57 85 88 84 79 75 69 59 49 25 55 64 62 60 58 56 54 59 57 53 54 51 49
113 110 100 102 106 116 123 124 119 117 115 112 108 105 102 99 97 95 95 103 101 99 99 97 100 104 107 101 94 96 98 93 93 95 93 90 86 88 90 86 83 84 84 83 81 79 79 78 74 71 68 67 67 69 69 65 58 51 45 41 41 47 59 73 80 79 76 71 65 59 49 38 30 61 65 64 61 58 61 58 55 54 54 49 49
120 117 110 107 107 115 125 125 117 115 112 110 112 113 107 103 103 106 104 95 94 97 97 97 99 99 101 101 97 94 92 91 96 98 93 95 97 91 90 89 86 84 82 82 85 86 82 77 74 72 70 69 69 69 68 63 55 47 41 35 33 39 56 75 80 80 73 64 58 54 41 32 32 49 59 62 61 53 55 54 52 56 50 47 46
129 122 117 115 118 124 130 127 118 116 113 112 110 107 106 106 104 103 106 109 107 105 101 101 107 108 105 102 100 99 98 96 90 93 99 94 89 90 92 94 92 88 87 84 78 76 76 75 74 75 72 69 70 70 67 61 54 47 42 40 37 46 65 74 78 76 69 61 60 53 45 43 38 48 55 51 51 49 49 52 54 48 52 58 51
130 124 124 124 124 129 133 128 121 119 115 112 112 110 108 107 107 108 101 100 104 102 101 101 98 105 106 101 101 101 98 95 92 94 91 94 95 95 93 92 91 88 86 86 83 83 83 81 77 73 70 70 70 70 67 58 51 46 44 43 44 52 69 67 71 72 70 65 62 57 50 43 50 59 60 55 55 55 49 48 53 50 44 75 65
123 125 124 127 129 133 136 131 126 122 118 115 111 105 104 109 113 109 104 104 102 101 105 104 104 97 100 105 103 102 102 97 91 93 98 102 102 98 94 91 90 89 90 88 84 81 80 79 76 73 72 71 69 67 60 52 45 42 41 42 43 45 55 55 61 62 60 62 52 43 43 41 31 56 61 58 54 56 55 55 50 36 37 57 57
121 119 124 125 132 134 137 137 130 126 123 121 116 114 113 114 107 103 105 106 105 106 98 102 101 98 100 97 98 101 102 102 97 95 93 95 93 89 88 90 87 90 89 88 87 85 81 80 77 74 73 71 68 62 54 48 43 39 37 36 38 38 47 56 54 59 60 54 48 36 27 23 23 36 61 57 57 65 70 67 74 49 34 44 47
116 117 118 123 133 139 143 140 129 128 127 127 125 121 119 113 109 114 117 112 108 108 110 101 100 100 101 104 99 98 103 102 99 103 101 97 94 94 93 90 89 87 85 87 88 86 83 80 76 74 71 69 65 59 53 47 42 38 37 33 30 29 30 53 59 61 63 59 53 39 23 19 357 14 56 56 52 51 47 53 60 56 45 43 46
113 116 119 123 135 138 140 136 125 128 133 130 126 124 124 124 123 116 112 114 114 112 110 112 110 107 105 109 108 108 105 103 101 100 101 98 99 99 96 94 94 92 89 87 86 86 84 80 78 75 72 68 63 57 52 47 43 40 37 33 29 24 19 39 59 68 78 70 59 46 32 17 2 17 54 52 53 52 52 54 49 54 49 46 44
115 118 121 122 128 133 130 129 124 130 132 131 128 129 131 128 121 118 124 122 120 113 112 113 114 113 113 110 109 111 114 114 107 103 99 99 99 97 93 93 92 92 91 89 87 86 84 82 78 75 71 68 63 58 52 49 46 42 37 35 33 31 30 52 59 58 57 67 61 48 37 25 5 26 36 47 51 54 53 47 52 57 48 40 36
116 121 125 130 135 123 117 117 119 124 128 126 125 129 129 121 123 120 124 124 122 116 117 119 116 116 118 118 114 111 104 93 99 103 101 99 98 94 91 90 89 90 93 92 90 87 85 84 81 77 73 67 60 54 48 44 41 39 34 38 39 33 22 33 64 66 75 67 53 48 39 19 18 33 38 32 45 52 50 44 40 40 36 29 25
123 126 130 131 130 119 114 112 108 106 107 114 124 126 131 126 128 130 125 120 126 126 121 119 117 121 122 122 120 113 94 94 106 104 100 101 99 97 96 95 95 94 92 88 88 88 86 82 80 77 73 68 62 52 41 33 31 25 23 23 26 26 21 8 22 65 68 63 49 43 31 11 16 32 41 33 53 53 49 49 37 26 31 25 19
126 130 130 129 125 121 115 112 108 102 94 90 103 120 119 126 127 133 133 126 120 119 121 125 130 121 111 109 111 105 90 82 76 72 92 105 104 105 103 102 99 98 97 95 92 89 88 85 79 77 74 72 68 60 45 30 20 18 11 12 17 21 20 16 8 62 86 66 54 42 21 9 6 22 32 40 34 32 48 46 29 22 21 9 3
124 132 132 134 130 130 123 116 116 104 97 93 95 111 118 124 130 134 137 129 126 129 131 141 131 120 109 107 104 92 87 81 76 72 66 81 94 98 105 105 103 101 96 96 93 90 88 85 82 79 79 77 74 69 62 42 14 6 1 359 6 9 8 9 40 50 76 70 56 36 18 5 7 7 15 30 30 26 27 23 18 13 18 13 359
134 138 141 142 140 136 129 132 127 117 111 98 99 113 125 129 133 131 128 123 114 106 105 105 108 109 106 105 96 92 86 81 75 75 74 83 89 88 92 101 100 97 97 93 95 93 90 88 88 87 89 89 91 89 80 61 28 346 347 359 353 354 352 3 37 80 90 79 70 46 31 17 9 9 10 27 24 28 25 19 16 6 17 5 10
138 143 146 149 147 141 141 145 141 133 130 123 117 119 126 129 129 130 118 110 116 113 112 114 115 110 107 105 98 94 89 85 81 83 86 87 89 88 93 99 103 102 99 101 100 98 95 95 95 99 98 98 102 111 121 78 250 347 329 334 339 335 339 4 52 111 103 84 76 61 44 22 11 11 7 20 28 30 26 17 11 4 359 11 21
144 150 154 156 153 151 152 147 146 137 139 136 132 125 126 131 132 126 120 120 121 121 119 119 119 118 119 116 113 106 99 95 92 82 82 82 89 92 95 109 111 115 114 111 108 105 104 105 105 107 107 102 101 104 289 260 254 255 323 315 328 330 321 330 30 78 91 92 77 63 42 30 17 11 10 19 22 23 23 17 14 12 358 6 19
135 163 158 162 163 161 163 154 160 148 143 136 129 125 126 121 125 131 129 129 130 128 125 123 124 128 128 129 126 121 120 114 97 100 88 86 93 94 89 81 107 120 120 119 115 113 114 114 121 119 106 85 357 333 309 294 288 293 307 343 334 320 310 327 22 106 104 94 83 66 49 37 21 13 10 14 19 26 22 11 11 16 18 12 21
156 174 167 163 166 170 171 168 163 160 149 141 137 135 135 136 135 135 132 134 132 130 131 137 139 148 145 143 140 141 129 108 109 109 103 100 88 96 96 99 87 87 116 121 122 129 129 132 150 150 184 175 292 317 302 293 294 300 325 312 315 310 279 315 56 110 126 134 102 90 69 47 29 15 6 8 16 25 20 13 13 11 23 20 39
195 189 179 167 169 175 177 175 172 163 152 146 144 148 147 144 146 146 144 145 147 142 147 148 157 159 166 167 137 134 129 127 130 121 112 104 97 95 101 97 94 96 113 118 132 146 171 173 187 252 261 289 304 273 291 294 307 302 289 279 284 275 313 312 109 115 144 156 109 88 54 43 27 14 3 6 15 24 23 22 20 26 32 42 51
195 190 181 172 172 176 180 181 177 157 152 152 150 153 153 153 155 150 150 155 160 157 158 163 178 169 177 181 119 122 133 130 133 128 120 120 106 89 116 118 121 114 135 142 250 271 205 238 250 307 306 291 215 241 263 277 269 263 247 274 243 327 356 327 302 119 164 111 81 53 38 34 28 23 16 17 24 36 32 28 35 43 48 54 60
181 189 204 190 172 180 168 179 179 146 155 156 157 162 162 158 164 159 159 162 176 176 175 180 190 186 181 174 150 137 144 134 141 140 138 137 145 149 150 167 170 200 203 224 237 255 261 269 278 296 292 274 280 278 200 205 209 212 250 279 13 56 1 1 348 75 119 101 89 62 45 42 38 39 38 42 48 51 42 39 48 56 64 65 65
171 170 196 200 186 195 171 152 175 149 158 160 167 170 166 166 170 174 166 170 179 183 191 190 201 204 171 182 151 150 150 147 161 158 148 153 160 178 184 187 193 208 192 224 221 222 238 243 239 245 256 250 250 239 222 219 271 284 292 342 288 84 16 343 318 33 100 99 77 67 58 54 54 51 52 60 62 62 51 49 59 61 62 67 66
182 181 173 190 183 186 180 147 173 154 160 165 167 166 178 175 172 176 168 183 183 182 203 190 199 209 163 168 145 161 154 157 159 167 156 162 185 189 190 189 195 206 200 201 221 222 223 224 234 253 261 258 241 229 231 247 256 260 293 286 253 154 169 326 301 46 104 95 83 77 70 61 49 57 60 61 62 62 58 54 58 66 69 68 70
177 183 175 170 180 182 179 152 182 162 168 168 161 173 184 170 172 177 178 181 178 194 190 196 181 202 162 163 160 158 154 160 166 168 178 179 193 203 189 185 198 214 207 198 207 223 228 219 219 242 239 235 256 282 272 287 280 277 279 258 251 176 176 243 299 73 113 108 99 94 85 68 55 54 58 58 57 63 66 61 61 71 75 75 78
173 181 183 170 181 177 172 171 178 174 177 168 177 174 179 160 167 173 182 159 185 194 183 188 175 197 162 157 161 158 145 160 164 185 166 180 196 191 183 194 186 203 195 205 201 208 227 233 207 212 219 260 280 272 258 263 265 257 181 232 248 163 215 286 330 88 129 122 113 118 98 85 71 65 59 58 64 71 76 76 81 84 84 85 79
180 175 176 188 179 176 177 177 177 178 178 172 188 173 181 157 171 179 184 158 174 200 174 181 185 185 189 160 172 172 169 166 174 185 172 204 195 191 157 180 188 184 183 203 223 194 218 229 231 233 252 244 221 241 235 242 283 290 303 298 238 195 202 255 59 119 130 133 132 117 102 93 80 73 67 70 73 81 89 96 93 93 92 86 85
170 176 181 185 182 175 183 179 177 175 175 182 186 181 182 175 171 184 178 184 191 176 178 182 178 184 190 178 182 174 183 175 176 183 184 191 193 187 190 193 203 199 191 201 221 212 212 217 213 192 195 209 228 209 194 241 265 285 277 221 226 195 188 108 115 138 135 146 136 107 88 80 77 74 78 77 81 86 98 100 103 101 94 90 85
179 180 182 181 176 181 182 182 177 178 180 188 182 179 188 189 174 176 183 189 181 201 189 183 179 182 186 185 192 189 178 182 185 182 182 184 186 186 197 188 208 202 195 197 207 216 187 197 196 191 188 199 245 297 266 256 276 274 281 270 230 181 189 111 150 140 125 133 126 116 103 85 75 78 76 82 88 96 100 102 99 94 92 87 83
195 178 176 174 182 179 177 184 178 179 186 189 190 183 187 185 179 183 184 182 192 199 201 198 183 179 184 188 194 199 194 175 193 183 182 183 182 189 196 201 203 199 199 192 197 209 200 184 212 222 209 255 320 298 301 291 269 262 242 245 211 202 201 128 148 139 120 122 130 130 116 104 90 78 73 66 89 102 104 100 96 90 86 83 81
185 188 169 179 181 179 179 177 181 182 189 190 190 186 186 185 183 180 180 179 188 196 206 203 193 182 181 191 192 199 203 193 180 195 180 183 187 190 194 204 206 200 195 178 187 191 193 197 238 200 238 225 239 249 268 284 263 244 247 225 195 225 140 150 152 154 135 118 129 133 135 118 106 95 80 63 48 105 106 99 93 88 83 80 76
174 185 185 182 178 180 180 182 182 185 186 190 191 194 187 184 183 181 182 182 186 194 199 201 197 196 179 189 192 194 204 204 192 187 189 184 189 195 197 203 202 192 186 191 186 195 185 197 204 202 231 226 228 247 244 247 234 250 262 183 191 194 127 156 160 138 134 128 123 139 144 132 119 108 96 81 45 45 90 94 91 88 83 77 73
185 184 188 178 183 182 183 184 180 184 187 189 192 193 191 187 185 186 182 184 185 193 195 197 198 195 189 188 194 192 197 207 202 196 191 189 187 194 203 200 199 175 184 188 183 188 195 202 216 200 212 233 218 242 212 232 245 253 268 186 216 160 101 119 153 145 145 128 127 137 137 141 136 124 114 101 80 63 74 81 82 80 78 74 69
195 179 184 183 185 185 183 185 183 187 186 187 189 192 189 188 186 188 188 184 187 192 196 196 194 192 196 194 195 194 196 204 206 201 197 199 201 197 200 198 188 178 177 184 186 193 179 198 224 212 199 215 215 238 321 229 225 205 176 200 233 180 110 159 166 150 135 131 134 122 118 136 142 134 127 117 109 97 88 89 81 73 68 70 67
195 189 184 185 186 184 185 186 187 189 188 186 186 188 191 187 191 194 191 189 194 194 195 194 196 196 194 200 197 196 200 203 207 202 201 203 202 202 205 204 185 180 187 186 195 194 196 192 220 219 198 191 205 211 206 179 154 172 179 246 272 131 160 152 146 150 140 136 132 135 140 136 140 146 139 134 132 119 112 97 88 79 69 68 65
192 194 186 186 183 186 185 187 184 186 188 186 182 183 188 194 196 194 198 201 202 201 195 199 202 199 198 199 197 197 201 204 206 204 201 201 204 204 206 208 197 186 186 192 198 201 205 204 202 225 221 202 196 188 179 180 174 157 270 261 268 166 168 150 149 155 157 146 138 145 136 129 129 148 149 145 141 134 122 114 100 89 79 73 65
192 192 192 182 183 184 187 188 190 180 179 186 181 182 184 191 196 197 205 207 205 204 206 204 203 206 204 200 199 197 197 201 204 205 205 199 199 205 206 204 201 191 193 193 201 197 198 197 210 206 215 228 219 176 165 148 124 126 290 295 266 196 194 167 158 162 159 142 133 139 136 133 126 143 152 153 148 147 137 135 119 111 97 81 74
190 191 191 194 187 180 183 194 189 178 176 182 189 190 192 195 201 201 204 198 200 202 208 208 208 209 209 206 199 198 196 198 201 200 205 205 204 202 205 206 194 195 196 201 197 199 200 197 202 197 192 191 219 197 179 132 123 332 359 289 319 209 210 180 161 167 152 138 131 135 141 131 140 138 146 145 151 157 156 144 133 123 106 94 79
198 190 193 195 195 183 185 190 184 187 187 186 188 196 200 201 196 199 195 195 193 198 207 207 207 207 208 209 203 199 198 198 198 199 202 203 205 203 202 205 195 198 199 199 198 199 200 203 195 214 210 188 208 191 191 123 76 184 178 327 358 6 357 45 169 168 143 138 142 139 150 146 154 150 134 128 137 146 156 152 143 136 119 103 95
189 193 196 190 190 193 191 186 189 189 194 189 186 198 200 204 203 206 199 201 217 211 213 211 208 210 212 211 209 201 200 201 198 199 199 203 205 204 207 205 202 193 195 204 200 202 200 204 201 199 213 219 201 199 181 179 187 171 123 102 250 136 294 309 316 173 155 150 145 145 154 151 161 158 149 132 139 139 141 143 143 137 134 109 104
189 197 196 194 192 194 192 191 193 194 193 196 196 197 195 195 204 196 211 206 199 218 226 222 219 222 222 211 216 206 200 203 199 200 203 204 203 206 206 208 209 200 200 201 202 205 201 204 202 205 189 201 200 215 199 186 161 135 185 193 202 143 198 246 188 212 170 169 151 162 160 159 152 151 143 144 157 148 140 133 135 138 125 116 108
196 196 195 195 196 196 197 194 193 195 196 195 196 188 173 176 181 181 185 222 256 227 206 222 214 215 218 215 213 198 203 204 201 202 203 206 205 206 206 208 209 208 205 207 206 206 204 203 196 195 195 193 206 194 217 197 195 193 154 118 96 150 213 202 146 229 138 153 195 164 173 157 149 160 158 162 158 155 148 129 133 130 128 122 112
202 204 198 198 196 201 200 197 194 194 198 196 190 184 190 190 183 191 201 206 217 214 214 211 205 206 211 210 207 202 203 208 206 204 206 206 207 207 208 207 210 210 208 210 209 205 207 206 201 196 200 200 188 188 200 229 214 206 208 190 157 174 184 215 152 206 181 258 188 193 174 173 157 160 163 160 161 163 155 147 140 134 130 122 118
211 203 200 202 203 203 201 199 199 198 194 193 185 185 192 197 200 205 209 208 214 223 223 221 211 215 206 207 213 213 213 211 214 211 208 209 210 209 210 212 213 213 210 210 211 207 206 205 199 199 201 193 178 195 195 198 218 237 219 232 210 189 155 137 197 97 184 252 180 202 206 175 168 159 164 170 167 160 171 153 146 136 128 126 117
208 195 203 205 205 204 199 201 203 201 196 187 188 190 195 197 201 207 210 216 216 224 213 221 215 197 205 212 207 218 219 220 219 216 214 209 212 214 212 214 217 218 210 215 215 211 207 206 201 203 201 194 192 198 197 185 191 213 206 218 212 197 195 193 162 172 160 173 216 258 289 184 167 179 170 171 172 170 164 161 143 135 130 124 115
199 196 203 204 204 204 203 202 206 203 200 191 191 196 199 198 201 204 213 220 220 223 206 210 208 199 210 210 209 215 218 222 222 221 218 216 212 217 214 216 219 220 215 221 222 214 209 204 203 204 205 204 199 200 186 196 196 210 185 215 195 196 194 207 165 139 143 153 211 185 178 317 194 224 194 175 181 171 165 162 151 144 138 126 114
200 202 205 202 205 203 205 203 211 205 200 196 196 199 201 198 203 208 214 216 210 213 194 205 205 194 213 212 211 213 214 219 222 224 225 222 218 216 220 219 220 221 217 223 224 220 216 213 208 205 205 205 203 197 199 196 200 207 197 182 188 187 190 197 187 171 52 185 168 193 183 172 184 224 202 186 179 174 158 145 143 145 139 133 123
199 193 196 197 197 198 205 207 214 206 199 201 198 203 199 201 210 210 212 215 207 205 208 215 205 202 212 213 210 213 211 217 215 222 222 220 219 216 218 222 221 221 221 223 225 223 220 218 214 210 207 206 203 205 206 200 199 205 204 195 197 188 190 192 195 185 177 162 114 194 185 197 188 172 222 197 174 173 153 148 149 153 147 142 132